Airfield :
LOGIN :

Register | Disclaimer

   EN    FR    IT 

 










Legend :    VFR   Marginal VFR   IFR   Intensive IFR   Very Intensive IFR
Visi :
Ceiling :
>= 8 km
>= 3000ft
5 to 8 km
1000 to 3000 ft
1500m to 5 km
500 to 1000 ft
800 to 1500m
200 to 500 ft
< 800m
< 200 ft
Symbols :   Thunderstorms  Fog  Heavy snow  Heavy precipitations  Wind > 20 kt
SIGMETs :     Misc.  Thunderstorms  Icing  Turbulence  Mountain Waves  Volcanic Ashes







- Airport Elevation : 100 ft
- IATA code : DCI


LIED - Decimomannu Air Base

CURRENT METAR :
  • 112255Z 06002KT 9999 FEW030 07/06 Q1019 RMK FEW VIS MIN 9999 WIND THR35 /////KT WIND THR17 /////KT BLU

EXPIRED METARs :
  • 112155Z 02002KT 9999 FEW030 09/07 Q1019 RMK FEW VIS MIN 9999 WIND THR35 /////KT WIND THR17 /////KT BLU
  • 112055Z 12002KT 9999 FEW030 09/08 Q1019 RMK FEW VIS MIN 9999 WIND THR35 /////KT WIND THR17 /////KT BLU

TAF TAF LIED
Valid from the 11 at 21:00 until the 12 at 06:00 UTC


112000Z 1121/1206 VRB02KT 9999 BKN030
TEMPO 1202/1206 5000 BR SCT010
No reported NOTAMs for that airfield.



MET'MAP, your aeronautical weather chart ! - Copyright ORBIFLY December 2007 - Disclaimer

ORBIFLY MET'MAP TEAM :

Programming & Development : Alexandra Zaïnal
Concept & Development : Baudouin d'Aumeries
Co-Development & Prog : Marc-Olivier Méhu
Technical & hardware support : Manuel Goepfert

Contact : metmap@orbifly.com




SOURCES & CREDITS :

   NOAA